Regional Weather Roundup
Issued by NWS

Home | Current Version | Previous Version | Text Only | Print | Product List | Glossary Off
Versions: 1 2 3 4 5 6 7 8 9 10 11 12 13 14 15 16 17 18 19 20 21 22 23 24 25 26 27 28 29 30 31 32 33 34 35 36 37 38 39 40 41 42 43 44 45 46 47 48 49 50

000
ASUS43 KLOT 041203
RWRIL

ILLINOIS REGIONAL WEATHER ROUNDUP
NATIONAL WEATHER SERVICE CHICAGO/ROMEOVILLE IL
600 AM CST SUN DEC 04 2016

NOTE: "FAIR" INDICATES FEW OR NO CLOUDS BELOW 12,000 FEET WITH NO
SIGNIFICANT WEATHER AND/OR OBSTRUCTIONS TO VISIBILITY.

* THESE STATIONS ARE NOT UNDER NWS QUALITY CONTROL. THEY ALSO MAY NOT
  REPORT WEATHER SUCH AS PRECIPITATION OR FOG.

ILZ001-002-007-009-015-016-024-041300-
NORTHWEST ILLINOIS

CITY           SKY/WX    TMP DP  RH WIND       PRES   REMARKS
MOLINE         LGT SNOW  33  30  88 SE7       30.11F FOG     WCI  27
6HR MIN TEMP:  33; 6HR MAX TEMP:  35; 6HR PCP:  0.03;

STERLING*      LGT SNOW  31  29  92 SE9       30.15F FOG     WCI  23
$$

ILZ003-004-008-010-011-017-018-041300-
NORTH CENTRAL ILLINOIS

CITY           SKY/WX    TMP DP  RH WIND       PRES   REMARKS
ROCKFORD       CLOUDY    32  27  81 SE6       30.18F WCI  26
6HR MIN TEMP:  32; 6HR MAX TEMP:  33;

FREEPORT*      LGT SNOW  31  27  84 SE8       30.16F WCI  24
ROCHELLE*      CLOUDY    32  29  88 E5        30.16F WCI  27
$$

ILZ005-006-012>014-019>023-041300-
NORTHEAST ILLINOIS

CITY           SKY/WX    TMP DP  RH WIND       PRES   REMARKS
CHICAGO-OHARE  CLOUDY    31  26  82 CALM      30.18S
6HR MIN TEMP:  29; 6HR MAX TEMP:  32;

CHICAGO-MIDWAY CLOUDY    33  24  69 CALM      30.19S
6HR MIN TEMP:  32; 6HR MAX TEMP:  33;

AURORA         CLOUDY    33  28  81 E5        30.17F WCI  29
6HR MIN TEMP:  32; 6HR MAX TEMP:  33;

LANSING*       CLOUDY    30  29  94 CALM      30.19R
WAUKEGAN       CLOUDY    32  26  78 W3        30.17S
6HR MIN TEMP:  29; 6HR MAX TEMP:  32;

DUPAGE AIRPORT CLOUDY    31  26  82 CALM      30.17R
6HR MIN TEMP:  30; 6HR MAX TEMP:  32;

KANKAKEE*      CLOUDY    32  28  86 E7        30.17F WCI  26
WHEELING       CLOUDY    32  25  75 CALM      30.19S
6HR MIN TEMP:  31; 6HR MAX TEMP:  32;

MORRIS*        CLOUDY    32  29  88 CALM      30.18S
NORTHERLY ISL    N/A     34  25  70 S5          N/A  WCI  30
$$

LMZ740>746-041300-
SOUTHERN LAKE MICHIGAN

STATION/POSITION SKY/WX   TEMP    WIND        PRES    VSBY  WAVE
                          AIR SEA DIR/SP/G                  HT/PER
                          (F)     (DEG/KT/KT) (MB)    (MI)  (FT/S)
SOUTHERN BUOY              36 48  280/  2/  4 1022.3F         0
HARRISON CRIB              35     180/  4/  6   N/A
BURNHAM HARBOR             34     190/  4/  6   N/A
CALUMET HARBOR             32     170/  4/  5 1021.5F
BURNS HARBOR               33     150/  7/ 10 1022.4F
MICHIGAN CITY              32     110/  7/  9   N/A
$$

ILZ025>027-034>036-040-047-049-050-058-095>099-041300-
WEST-CENTRAL ILLINOIS

CITY           SKY/WX    TMP DP  RH WIND       PRES   REMARKS
QUINCY         LGT RAIN  35  34  96 E8        30.07F FOG     WCI  29
GALESBURG*     LGT SNOW  32  31  94 E5        30.11F WCI  27
MACOMB*        LGT RAIN  33  32  95 SE12      30.12F WCI  24
JACKSONVILLE*  LGT RAIN  35  32  90 E7        30.11S WCI  29
PITTSFIELD*    LGT RAIN  36  34  94 E6        30.10F WCI  31
$$

ILZ028>032-037-038-041>044-048-051>054-059>061-041300-
CENTRAL ILLINOIS

CITY           SKY/WX    TMP DP  RH WIND       PRES   REMARKS
BLOOMINGTON    FLURRIES  32  29  88 E6        30.14F WCI  26
DECATUR        CLOUDY   N/A N/A N/A E7        30.14F
PEORIA         FLURRIES  34  29  82 SE7       30.13F WCI  28
6HR MIN TEMP:  33; 6HR MAX TEMP:  34; 6HR PCP: TRACE;

LACON*         CLOUDY    32  29  87 E6        30.13F WCI  26
LINCOLN*       CLOUDY    35  32  90 E7        30.14F WCI  29
SPRINGFIELD    CLOUDY    36  31  82 E8        30.12F WCI  30
6HR MIN TEMP:  36; 6HR MAX TEMP:  36;

TAYLORVILLE    FLURRIES  34  32  92 E5        30.12F WCI  30
6HR MIN TEMP:  34; 6HR MAX TEMP:  35;

$$

ILZ033-039-045-046-055>057-062-063-041300-
EAST-CENTRAL ILLINOIS

CITY           SKY/WX    TMP DP  RH WIND       PRES   REMARKS
CHAMPAIGN      CLOUDY    33  29  85 E6        30.15F WCI  28
RANTOUL*       CLOUDY    34  31  90 E6        30.15F WCI  29
MATTOON        MIX PCPN  35  29  78 E6        30.12F WCI  30
PARIS*         CLOUDY    33  31  92 E5        30.15F WCI  29
$$

ILZ079-100>102-041300-
SOUTHWEST ILLINOIS

CITY           SKY/WX    TMP DP  RH WIND       PRES   REMARKS
ALTON          CLOUDY    36  33  88 E6        30.09F WCI  31
BELLEVILLE     CLOUDY    38  36  94 E5        30.08F WCI  34
CAHOKIA*       CLOUDY    39  34  82 E6        30.09F WCI  35
SPARTA*        CLOUDY    37  34  90 E6        30.09F WCI  32
$$

ILZ064>066-069>071-074>076-080>082-084>086-088>090-092>094-041300-
SOUTH-CENTRAL ILLINOIS

CITY           SKY/WX    TMP DP  RH WIND       PRES   REMARKS
CARBONDALE     CLOUDY    39  36  89 E6        30.08F WCI  35
6HR MIN TEMP:  38; 6HR MAX TEMP:  40; 6HR PCP: TRACE;

CAIRO*         CLOUDY    39  37  94 E12       30.06F WCI  31
EFFINGHAM*     CLOUDY    36  34  91 E7        30.14S WCI  31
MARION         CLOUDY    41  37  87 E7        30.09S
SALEM*         CLOUDY    38  33  84 E6        30.10F WCI  33
METROPOLIS*    CLOUDY    39  37  93 CALM      30.09F FOG
$$

ILZ067-068-072-073-078-083-087-091-041300-
SOUTHEAST ILLINOIS

CITY           SKY/WX    TMP DP  RH WIND       PRES   REMARKS
LAWRENCEVILLE  LGT RAIN  37  32  82 E8        30.14F WCI  31
FLORA*         CLOUDY    37  35  90 E6        30.12F WCI  33
FAIRFIELD*     CLOUDY    37  35  92 E5        30.11F WCI  33
HARRISBURG*    CLOUDY    39  36  86 E8        30.11S WCI  34
ROBINSON*      LGT RAIN  36  32  87 E6        30.15F WCI  31
CARMI*         CLOUDY    38  36  93 NE8       30.11F WCI  32
$$

ABBREVIATIONS USED IN REMARKS
   TC - TEMPERATURE IN CELSIUS
  WCI - WIND CHILL INDEX
   HX - HEAT INDEX
  VSB - VISIBILITY
$$




USA.gov is the U.S. government's official web portal to all federal, state and local government web resources and services.